Date_Time,Julian_Date,Latitude,Longitude,Instrument_Depth,U,V,Speed,Direction
(yyyy-mm-dd hh:mn:ss UTC),(JD),(+ deg. North),(+ deg. East),(m),(cm/s),(cm/s),(cm/s),(deg True)
1984-01-04 19:00:00 UTC,2445704.291667,28.7467,-95.2267,0206,2.91,5.25,6.0000,29.0000
1984-01-04 19:30:00 UTC,2445704.312500,28.7467,-95.2267,0206,3.18,5.09,6.0000,32.0000
1984-01-04 20:00:00 UTC,2445704.333333,28.7467,-95.2267,0206,4.21,5.59,7.0000,37.0000
1984-01-04 20:30:00 UTC,2445704.354167,28.7467,-95.2267,0206,4.95,4.95,7.0000,45.0000
1984-01-04 21:00:00 UTC,2445704.375000,28.7467,-95.2267,0206,5.44,4.41,7.0000,51.0000
1984-01-04 21:30:00 UTC,2445704.395833,28.7467,-95.2267,0206,6.30,4.93,8.0000,52.0000
1984-01-04 22:00:00 UTC,2445704.416667,28.7467,-95.2267,0206,4.53,3.94,6.0000,49.0000
1984-01-04 22:30:00 UTC,2445704.437500,28.7467,-95.2267,0206,3.72,3.35,5.0000,48.0000
1984-01-04 23:00:00 UTC,2445704.458333,28.7467,-95.2267,0206,3.19,2.41,4.0000,53.0000
1984-01-04 23:30:00 UTC,2445704.479167,28.7467,-95.2267,0206,2.43,1.76,3.0000,54.0000
1984-01-05 00:00:00 UTC,2445704.500000,28.7467,-95.2267,0206,0.81,0.59,1.0000,54.0000
1984-01-05 00:30:00 UTC,2445704.520833,28.7467,-95.2267,0206,0.00,0.00,0.0000,54.0000
1984-01-05 01:00:00 UTC,2445704.541667,28.7467,-95.2267,0206,-0.00,-0.00,0.0000,222.0000
1984-01-05 01:30:00 UTC,2445704.562500,28.7467,-95.2267,0206,0.00,0.00,0.0000,27.0000
1984-01-05 02:00:00 UTC,2445704.583333,28.7467,-95.2267,0206,0.50,0.87,1.0000,30.0000
1984-01-05 02:30:00 UTC,2445704.604167,28.7467,-95.2267,0206,0.60,0.80,1.0000,37.0000
1984-01-05 03:00:00 UTC,2445704.625000,28.7467,-95.2267,0206,1.46,1.36,2.0000,47.0000
1984-01-05 03:30:00 UTC,2445704.645833,28.7467,-95.2267,0206,1.66,1.12,2.0000,56.0000
1984-01-05 04:00:00 UTC,2445704.666667,28.7467,-95.2267,0206,2.52,1.63,3.0000,57.0000
1984-01-05 04:30:00 UTC,2445704.687500,28.7467,-95.2267,0206,2.49,1.68,3.0000,56.0000
1984-01-05 05:00:00 UTC,2445704.708333,28.7467,-95.2267,0206,3.39,2.12,4.0000,58.0000
1984-01-05 05:30:00 UTC,2445704.729167,28.7467,-95.2267,0206,3.43,2.06,4.0000,59.0000
1984-01-05 06:00:00 UTC,2445704.750000,28.7467,-95.2267,0206,3.32,2.24,4.0000,56.0000
1984-01-05 06:30:00 UTC,2445704.770833,28.7467,-95.2267,0206,2.26,1.97,3.0000,49.0000
1984-01-05 07:00:00 UTC,2445704.791667,28.7467,-95.2267,0206,2.08,2.16,3.0000,44.0000
1984-01-05 07:30:00 UTC,2445704.812500,28.7467,-95.2267,0206,2.08,2.16,3.0000,44.0000
1984-01-05 08:00:00 UTC,2445704.833333,28.7467,-95.2267,0206,2.05,2.19,3.0000,43.0000
1984-01-05 08:30:00 UTC,2445704.854167,28.7467,-95.2267,0206,1.50,2.60,3.0000,30.0000
1984-01-05 09:00:00 UTC,2445704.875000,28.7467,-95.2267,0206,1.88,3.53,4.0000,28.0000
1984-01-05 09:30:00 UTC,2445704.895833,28.7467,-95.2267,0206,2.88,2.78,4.0000,46.0000
1984-01-05 10:00:00 UTC,2445704.916667,28.7467,-95.2267,0206,3.32,2.24,4.0000,56.0000
1984-01-05 10:30:00 UTC,2445704.937500,28.7467,-95.2267,0206,1.64,1.15,2.0000,55.0000
1984-01-05 11:00:00 UTC,2445704.958333,28.7467,-95.2267,0206,0.81,0.59,1.0000,54.0000
1984-01-05 11:30:00 UTC,2445704.979167,28.7467,-95.2267,0206,0.00,0.00,0.0000,53.0000
1984-01-05 12:00:00 UTC,2445705.000000,28.7467,-95.2267,0206,0.87,0.50,1.0000,60.0000
1984-01-05 12:30:00 UTC,2445705.020833,28.7467,-95.2267,0206,2.70,1.32,3.0000,64.0000
1984-01-05 13:00:00 UTC,2445705.041667,28.7467,-95.2267,0206,3.50,1.94,4.0000,61.0000
1984-01-05 13:30:00 UTC,2445705.062500,28.7467,-95.2267,0206,3.15,2.46,4.0000,52.0000
1984-01-05 14:00:00 UTC,2445705.083333,28.7467,-95.2267,0206,2.93,2.73,4.0000,47.0000
1984-01-05 14:30:00 UTC,2445705.104167,28.7467,-95.2267,0206,2.93,2.73,4.0000,47.0000
1984-01-05 15:00:00 UTC,2445705.125000,28.7467,-95.2267,0206,3.21,3.83,5.0000,40.0000
1984-01-05 15:30:00 UTC,2445705.145833,28.7467,-95.2267,0206,3.78,4.66,6.0000,39.0000
1984-01-05 16:00:00 UTC,2445705.166667,28.7467,-95.2267,0206,3.54,3.54,5.0000,45.0000
1984-01-05 16:30:00 UTC,2445705.187500,28.7467,-95.2267,0206,2.36,1.85,3.0000,52.0000
1984-01-05 17:00:00 UTC,2445705.208333,28.7467,-95.2267,0206,2.19,2.05,3.0000,47.0000
1984-01-05 17:30:00 UTC,2445705.229167,28.7467,-95.2267,0206,1.93,2.30,3.0000,40.0000
1984-01-05 18:00:00 UTC,2445705.250000,28.7467,-95.2267,0206,2.00,3.46,4.0000,30.0000
1984-01-05 18:30:00 UTC,2445705.270833,28.7467,-95.2267,0206,1.65,5.77,6.0000,16.0000
1984-01-05 19:00:00 UTC,2445705.291667,28.7467,-95.2267,0206,1.11,7.92,8.0000,8.0000
1984-01-05 19:30:00 UTC,2445705.312500,28.7467,-95.2267,0206,1.11,7.92,8.0000,8.0000
1984-01-05 20:00:00 UTC,2445705.333333,28.7467,-95.2267,0206,1.66,7.83,8.0000,12.0000
1984-01-05 20:30:00 UTC,2445705.354167,28.7467,-95.2267,0206,2.21,7.69,8.0000,16.0000
1984-01-05 21:00:00 UTC,2445705.375000,28.7467,-95.2267,0206,2.07,7.73,8.0000,15.0000
1984-01-05 21:30:00 UTC,2445705.395833,28.7467,-95.2267,0206,0.56,7.98,8.0000,4.0000
1984-01-05 22:00:00 UTC,2445705.416667,28.7467,-95.2267,0206,-1.11,7.92,8.0000,352.0000
1984-01-05 22:30:00 UTC,2445705.437500,28.7467,-95.2267,0206,-1.25,7.90,8.0000,351.0000
1984-01-05 23:00:00 UTC,2445705.458333,28.7467,-95.2267,0206,-0.56,7.98,8.0000,356.0000
1984-01-05 23:30:00 UTC,2445705.479167,28.7467,-95.2267,0206,-0.84,7.96,8.0000,354.0000
1984-01-06 00:00:00 UTC,2445705.500000,28.7467,-95.2267,0206,-1.57,6.82,7.0000,347.0000
1984-01-06 00:30:00 UTC,2445705.520833,28.7467,-95.2267,0206,-2.05,6.69,7.0000,343.0000
1984-01-06 01:00:00 UTC,2445705.541667,28.7467,-95.2267,0206,-1.35,5.85,6.0000,347.0000
1984-01-06 01:30:00 UTC,2445705.562500,28.7467,-95.2267,0206,-0.44,4.98,5.0000,355.0000
1984-01-06 02:00:00 UTC,2445705.583333,28.7467,-95.2267,0206,0.26,2.99,3.0000,5.0000
1984-01-06 02:30:00 UTC,2445705.604167,28.7467,-95.2267,0206,0.31,1.98,2.0000,9.0000
1984-01-06 03:00:00 UTC,2445705.625000,28.7467,-95.2267,0206,0.28,1.98,2.0000,8.0000
1984-01-06 03:30:00 UTC,2445705.645833,28.7467,-95.2267,0206,0.07,2.00,2.0000,2.0000
1984-01-06 04:00:00 UTC,2445705.666667,28.7467,-95.2267,0206,-0.05,3.00,3.0000,359.0000
1984-01-06 04:30:00 UTC,2445705.687500,28.7467,-95.2267,0206,0.61,4.96,5.0000,7.0000
1984-01-06 05:00:00 UTC,2445705.708333,28.7467,-95.2267,0206,1.45,5.82,6.0000,14.0000
1984-01-06 05:30:00 UTC,2445705.729167,28.7467,-95.2267,0206,1.69,6.79,7.0000,14.0000
1984-01-06 06:00:00 UTC,2445705.750000,28.7467,-95.2267,0206,1.46,6.85,7.0000,12.0000
1984-01-06 06:30:00 UTC,2445705.770833,28.7467,-95.2267,0206,1.10,6.91,7.0000,9.0000
1984-01-06 07:00:00 UTC,2445705.791667,28.7467,-95.2267,0206,0.10,6.00,6.0000,1.0000
1984-01-06 07:30:00 UTC,2445705.812500,28.7467,-95.2267,0206,-0.73,5.96,6.0000,353.0000
1984-01-06 08:00:00 UTC,2445705.833333,28.7467,-95.2267,0206,-1.04,5.91,6.0000,350.0000
1984-01-06 08:30:00 UTC,2445705.854167,28.7467,-95.2267,0206,-0.61,4.96,5.0000,353.0000
1984-01-06 09:00:00 UTC,2445705.875000,28.7467,-95.2267,0206,0.52,2.95,3.0000,10.0000
1984-01-06 09:30:00 UTC,2445705.895833,28.7467,-95.2267,0206,1.82,3.56,4.0000,27.0000
1984-01-06 10:00:00 UTC,2445705.916667,28.7467,-95.2267,0206,1.88,3.53,4.0000,28.0000
1984-01-06 10:30:00 UTC,2445705.937500,28.7467,-95.2267,0206,0.91,1.78,2.0000,27.0000
1984-01-06 11:00:00 UTC,2445705.958333,28.7467,-95.2267,0206,0.00,0.00,0.0000,28.0000
1984-01-06 11:30:00 UTC,2445705.979167,28.7467,-95.2267,0206,-0.00,-0.00,0.0000,224.0000
1984-01-06 12:00:00 UTC,2445706.000000,28.7467,-95.2267,0206,0.00,0.00,0.0000,10.0000
1984-01-06 12:30:00 UTC,2445706.020833,28.7467,-95.2267,0206,-0.00,-0.00,0.0000,208.0000
1984-01-06 13:00:00 UTC,2445706.041667,28.7467,-95.2267,0206,0.00,0.00,0.0000,19.0000
1984-01-06 13:30:00 UTC,2445706.062500,28.7467,-95.2267,0206,0.00,0.00,0.0000,22.0000
1984-01-06 14:00:00 UTC,2445706.083333,28.7467,-95.2267,0206,0.00,0.00,0.0000,18.0000
1984-01-06 14:30:00 UTC,2445706.104167,28.7467,-95.2267,0206,0.62,0.79,1.0000,38.0000
1984-01-06 15:00:00 UTC,2445706.125000,28.7467,-95.2267,0206,1.31,1.51,2.0000,41.0000
1984-01-06 15:30:00 UTC,2445706.145833,28.7467,-95.2267,0206,2.08,2.16,3.0000,44.0000
1984-01-06 16:00:00 UTC,2445706.166667,28.7467,-95.2267,0206,1.41,1.41,2.0000,45.0000
1984-01-06 16:30:00 UTC,2445706.187500,28.7467,-95.2267,0206,0.69,0.72,1.0000,44.0000
1984-01-06 17:00:00 UTC,2445706.208333,28.7467,-95.2267,0206,0.62,0.79,1.0000,38.0000
1984-01-06 17:30:00 UTC,2445706.229167,28.7467,-95.2267,0206,1.09,1.68,2.0000,33.0000
1984-01-06 18:00:00 UTC,2445706.250000,28.7467,-95.2267,0206,1.72,2.46,3.0000,35.0000
1984-01-06 18:30:00 UTC,2445706.270833,28.7467,-95.2267,0206,2.52,3.11,4.0000,39.0000
1984-01-06 19:00:00 UTC,2445706.291667,28.7467,-95.2267,0206,3.28,3.77,5.0000,41.0000
1984-01-06 19:30:00 UTC,2445706.312500,28.7467,-95.2267,0206,2.62,3.02,4.0000,41.0000
1984-01-06 20:00:00 UTC,2445706.333333,28.7467,-95.2267,0206,2.68,2.97,4.0000,42.0000
1984-01-06 20:30:00 UTC,2445706.354167,28.7467,-95.2267,0206,2.08,2.16,3.0000,44.0000
1984-01-06 21:00:00 UTC,2445706.375000,28.7467,-95.2267,0206,1.39,1.44,2.0000,44.0000
1984-01-06 21:30:00 UTC,2445706.395833,28.7467,-95.2267,0206,0.69,0.72,1.0000,44.0000
1984-01-06 22:00:00 UTC,2445706.416667,28.7467,-95.2267,0206,0.00,0.00,0.0000,43.0000
1984-01-06 22:30:00 UTC,2445706.437500,28.7467,-95.2267,0206,0.00,0.00,0.0000,32.0000
1984-01-06 23:00:00 UTC,2445706.458333,28.7467,-95.2267,0206,0.00,0.00,0.0000,35.0000
1984-01-06 23:30:00 UTC,2445706.479167,28.7467,-95.2267,0206,0.00,0.00,0.0000,37.0000
1984-01-07 00:00:00 UTC,2445706.500000,28.7467,-95.2267,0206,-0.00,-0.00,0.0000,217.0000
1984-01-07 00:30:00 UTC,2445706.520833,28.7467,-95.2267,0206,0.00,0.00,0.0000,0.0000
1984-01-07 01:00:00 UTC,2445706.541667,28.7467,-95.2267,0206,0.00,0.00,0.0000,0.0000
1984-01-07 01:30:00 UTC,2445706.562500,28.7467,-95.2267,0206,0.00,0.00,0.0000,0.0000
1984-01-07 02:00:00 UTC,2445706.583333,28.7467,-95.2267,0206,0.00,0.00,0.0000,0.0000
1984-01-07 02:30:00 UTC,2445706.604167,28.7467,-95.2267,0206,0.00,0.00,0.0000,0.0000
1984-01-07 03:00:00 UTC,2445706.625000,28.7467,-95.2267,0206,0.00,0.00,0.0000,0.0000
1984-01-07 03:30:00 UTC,2445706.645833,28.7467,-95.2267,0206,0.00,0.00,0.0000,0.0000
1984-01-07 04:00:00 UTC,2445706.666667,28.7467,-95.2267,0206,0.00,0.00,0.0000,0.0000
1984-01-07 04:30:00 UTC,2445706.687500,28.7467,-95.2267,0206,0.00,0.00,0.0000,0.0000
1984-01-07 05:00:00 UTC,2445706.708333,28.7467,-95.2267,0206,0.00,0.00,0.0000,0.0000
1984-01-07 05:30:00 UTC,2445706.729167,28.7467,-95.2267,0206,-0.00,-0.00,0.0000,243.0000
1984-01-07 06:00:00 UTC,2445706.750000,28.7467,-95.2267,0206,0.00,0.00,0.0000,59.0000
1984-01-07 06:30:00 UTC,2445706.770833,28.7467,-95.2267,0206,2.70,1.32,3.0000,64.0000
1984-01-07 07:00:00 UTC,2445706.791667,28.7467,-95.2267,0206,4.64,1.87,5.0000,68.0000
1984-01-07 07:30:00 UTC,2445706.812500,28.7467,-95.2267,0206,4.76,1.55,5.0000,72.0000
1984-01-07 08:00:00 UTC,2445706.833333,28.7467,-95.2267,0206,1.94,0.48,2.0000,76.0000
1984-01-07 08:30:00 UTC,2445706.854167,28.7467,-95.2267,0206,0.94,0.34,1.0000,70.0000
1984-01-07 09:00:00 UTC,2445706.875000,28.7467,-95.2267,0206,1.78,0.91,2.0000,63.0000
1984-01-07 09:30:00 UTC,2445706.895833,28.7467,-95.2267,0206,2.65,1.41,3.0000,62.0000
1984-01-07 10:00:00 UTC,2445706.916667,28.7467,-95.2267,0206,2.62,1.45,3.0000,61.0000
1984-01-07 10:30:00 UTC,2445706.937500,28.7467,-95.2267,0206,1.75,0.97,2.0000,61.0000
1984-01-07 11:00:00 UTC,2445706.958333,28.7467,-95.2267,0206,0.89,0.45,1.0000,63.0000
1984-01-07 11:30:00 UTC,2445706.979167,28.7467,-95.2267,0206,0.92,-0.39,1.0000,113.0000
1984-01-07 12:00:00 UTC,2445707.000000,28.7467,-95.2267,0206,1.68,-1.09,2.0000,123.0000
1984-01-07 12:30:00 UTC,2445707.020833,28.7467,-95.2267,0206,1.59,-2.54,3.0000,148.0000
1984-01-07 13:00:00 UTC,2445707.041667,28.7467,-95.2267,0206,0.35,-3.98,4.0000,175.0000
1984-01-07 13:30:00 UTC,2445707.062500,28.7467,-95.2267,0206,-0.10,-6.00,6.0000,181.0000
1984-01-07 14:00:00 UTC,2445707.083333,28.7467,-95.2267,0206,0.10,-6.00,6.0000,179.0000
1984-01-07 14:30:00 UTC,2445707.104167,28.7467,-95.2267,0206,0.44,-4.98,5.0000,175.0000
1984-01-07 15:00:00 UTC,2445707.125000,28.7467,-95.2267,0206,0.87,-4.92,5.0000,170.0000
1984-01-07 15:30:00 UTC,2445707.145833,28.7467,-95.2267,0206,1.12,-4.87,5.0000,167.0000
1984-01-07 16:00:00 UTC,2445707.166667,28.7467,-95.2267,0206,0.76,-3.93,4.0000,169.0000
1984-01-07 16:30:00 UTC,2445707.187500,28.7467,-95.2267,0206,0.26,-2.99,3.0000,175.0000
1984-01-07 17:00:00 UTC,2445707.208333,28.7467,-95.2267,0206,0.28,-3.99,4.0000,176.0000
1984-01-07 17:30:00 UTC,2445707.229167,28.7467,-95.2267,0206,0.52,-4.97,5.0000,174.0000
1984-01-07 18:00:00 UTC,2445707.250000,28.7467,-95.2267,0206,0.49,-3.97,4.0000,173.0000
1984-01-07 18:30:00 UTC,2445707.270833,28.7467,-95.2267,0206,0.57,-2.94,3.0000,169.0000
1984-01-07 19:00:00 UTC,2445707.291667,28.7467,-95.2267,0206,0.24,-1.99,2.0000,173.0000
1984-01-07 19:30:00 UTC,2445707.312500,28.7467,-95.2267,0206,-0.90,-3.90,4.0000,193.0000
1984-01-07 20:00:00 UTC,2445707.333333,28.7467,-95.2267,0206,-2.28,-6.62,7.0000,199.0000
1984-01-07 20:30:00 UTC,2445707.354167,28.7467,-95.2267,0206,-2.28,-6.62,7.0000,199.0000
1984-01-07 21:00:00 UTC,2445707.375000,28.7467,-95.2267,0206,-2.85,-6.39,7.0000,204.0000
1984-01-07 21:30:00 UTC,2445707.395833,28.7467,-95.2267,0206,-2.72,-5.35,6.0000,207.0000
1984-01-07 22:00:00 UTC,2445707.416667,28.7467,-95.2267,0206,-2.63,-5.39,6.0000,206.0000
1984-01-07 22:30:00 UTC,2445707.437500,28.7467,-95.2267,0206,-3.07,-6.29,7.0000,206.0000
1984-01-07 23:00:00 UTC,2445707.458333,28.7467,-95.2267,0206,-3.29,-6.18,7.0000,208.0000
1984-01-07 23:30:00 UTC,2445707.479167,28.7467,-95.2267,0206,-4.36,-6.71,8.0000,213.0000
1984-01-08 00:00:00 UTC,2445707.500000,28.7467,-95.2267,0206,-6.02,-7.99,10.0000,217.0000
1984-01-08 00:30:00 UTC,2445707.520833,28.7467,-95.2267,0206,-6.47,-8.90,11.0000,216.0000
1984-01-08 01:00:00 UTC,2445707.541667,28.7467,-95.2267,0206,-7.05,-9.71,12.0000,216.0000
1984-01-08 01:30:00 UTC,2445707.562500,28.7467,-95.2267,0206,-7.46,-10.65,13.0000,215.0000
1984-01-08 02:00:00 UTC,2445707.583333,28.7467,-95.2267,0206,-6.54,-10.06,12.0000,213.0000
1984-01-08 02:30:00 UTC,2445707.604167,28.7467,-95.2267,0206,-5.30,-8.48,10.0000,212.0000
1984-01-08 03:00:00 UTC,2445707.625000,28.7467,-95.2267,0206,-4.36,-7.87,9.0000,209.0000
1984-01-08 03:30:00 UTC,2445707.645833,28.7467,-95.2267,0206,-2.39,-6.58,7.0000,200.0000
1984-01-08 04:00:00 UTC,2445707.666667,28.7467,-95.2267,0206,-0.73,-6.96,7.0000,186.0000
1984-01-08 04:30:00 UTC,2445707.687500,28.7467,-95.2267,0206,0.00,-7.00,7.0000,180.0000
1984-01-08 05:00:00 UTC,2445707.708333,28.7467,-95.2267,0206,-0.85,-6.95,7.0000,187.0000
1984-01-08 05:30:00 UTC,2445707.729167,28.7467,-95.2267,0206,-2.28,-6.62,7.0000,199.0000
1984-01-08 06:00:00 UTC,2445707.750000,28.7467,-95.2267,0206,-4.54,-8.91,10.0000,207.0000
1984-01-08 06:30:00 UTC,2445707.770833,28.7467,-95.2267,0206,-6.18,-10.29,12.0000,211.0000
1984-01-08 07:00:00 UTC,2445707.791667,28.7467,-95.2267,0206,-7.46,-10.65,13.0000,215.0000
1984-01-08 07:30:00 UTC,2445707.812500,28.7467,-95.2267,0206,-8.87,-9.51,13.0000,223.0000
1984-01-08 08:00:00 UTC,2445707.833333,28.7467,-95.2267,0206,-10.57,-9.18,14.0000,229.0000
1984-01-08 08:30:00 UTC,2445707.854167,28.7467,-95.2267,0206,-10.57,-9.18,14.0000,229.0000
1984-01-08 09:00:00 UTC,2445707.875000,28.7467,-95.2267,0206,-10.24,-9.55,14.0000,227.0000
1984-01-08 09:30:00 UTC,2445707.895833,28.7467,-95.2267,0206,-10.24,-9.55,14.0000,227.0000
1984-01-08 10:00:00 UTC,2445707.916667,28.7467,-95.2267,0206,-9.19,-9.19,13.0000,225.0000
1984-01-08 10:30:00 UTC,2445707.937500,28.7467,-95.2267,0206,-8.03,-8.92,12.0000,222.0000
1984-01-08 11:00:00 UTC,2445707.958333,28.7467,-95.2267,0206,-8.18,-10.10,13.0000,219.0000
1984-01-08 11:30:00 UTC,2445707.979167,28.7467,-95.2267,0206,-8.00,-10.24,13.0000,218.0000
1984-01-08 12:00:00 UTC,2445708.000000,28.7467,-95.2267,0206,-8.18,-10.10,13.0000,219.0000
1984-01-08 12:30:00 UTC,2445708.020833,28.7467,-95.2267,0206,-8.00,-10.24,13.0000,218.0000
1984-01-08 13:00:00 UTC,2445708.041667,28.7467,-95.2267,0206,-7.64,-10.52,13.0000,216.0000
1984-01-08 13:30:00 UTC,2445708.062500,28.7467,-95.2267,0206,-8.43,-11.18,14.0000,217.0000
1984-01-08 14:00:00 UTC,2445708.083333,28.7467,-95.2267,0206,-7.82,-10.38,13.0000,217.0000
1984-01-08 14:30:00 UTC,2445708.104167,28.7467,-95.2267,0206,-7.27,-10.78,13.0000,214.0000
1984-01-08 15:00:00 UTC,2445708.125000,28.7467,-95.2267,0206,-6.88,-9.83,12.0000,215.0000
1984-01-08 15:30:00 UTC,2445708.145833,28.7467,-95.2267,0206,-6.47,-8.90,11.0000,216.0000
1984-01-08 16:00:00 UTC,2445708.166667,28.7467,-95.2267,0206,-5.30,-8.48,10.0000,212.0000
1984-01-08 16:30:00 UTC,2445708.187500,28.7467,-95.2267,0206,-4.69,-8.83,10.0000,208.0000
1984-01-08 17:00:00 UTC,2445708.208333,28.7467,-95.2267,0206,-5.16,-9.71,11.0000,208.0000
1984-01-08 17:30:00 UTC,2445708.229167,28.7467,-95.2267,0206,-5.50,-9.53,11.0000,210.0000
1984-01-08 18:00:00 UTC,2445708.250000,28.7467,-95.2267,0206,-5.67,-9.43,11.0000,211.0000
1984-01-08 18:30:00 UTC,2445708.270833,28.7467,-95.2267,0206,-6.18,-10.29,12.0000,211.0000
1984-01-08 19:00:00 UTC,2445708.291667,28.7467,-95.2267,0206,-6.36,-10.18,12.0000,212.0000
1984-01-08 19:30:00 UTC,2445708.312500,28.7467,-95.2267,0206,-5.83,-9.33,11.0000,212.0000
1984-01-08 20:00:00 UTC,2445708.333333,28.7467,-95.2267,0206,-5.99,-9.23,11.0000,213.0000
1984-01-08 20:30:00 UTC,2445708.354167,28.7467,-95.2267,0206,-5.99,-9.23,11.0000,213.0000
1984-01-08 21:00:00 UTC,2445708.375000,28.7467,-95.2267,0206,-4.82,-9.89,11.0000,206.0000
1984-01-08 21:30:00 UTC,2445708.395833,28.7467,-95.2267,0206,-3.26,-9.46,10.0000,199.0000
1984-01-08 22:00:00 UTC,2445708.416667,28.7467,-95.2267,0206,-2.92,-9.56,10.0000,197.0000
1984-01-08 22:30:00 UTC,2445708.437500,28.7467,-95.2267,0206,-2.78,-8.56,9.0000,198.0000
1984-01-08 23:00:00 UTC,2445708.458333,28.7467,-95.2267,0206,-3.52,-8.28,9.0000,203.0000
1984-01-08 23:30:00 UTC,2445708.479167,28.7467,-95.2267,0206,-4.50,-7.79,9.0000,210.0000
1984-01-09 00:00:00 UTC,2445708.500000,28.7467,-95.2267,0206,-5.45,-8.39,10.0000,213.0000
1984-01-09 00:30:00 UTC,2445708.520833,28.7467,-95.2267,0206,-6.15,-9.12,11.0000,214.0000
1984-01-09 01:00:00 UTC,2445708.541667,28.7467,-95.2267,0206,-7.22,-8.30,11.0000,221.0000
1984-01-09 01:30:00 UTC,2445708.562500,28.7467,-95.2267,0206,-8.78,-8.18,12.0000,227.0000
1984-01-09 02:00:00 UTC,2445708.583333,28.7467,-95.2267,0206,-9.19,-9.19,13.0000,225.0000
1984-01-09 02:30:00 UTC,2445708.604167,28.7467,-95.2267,0206,-9.64,-11.49,15.0000,220.0000
1984-01-09 03:00:00 UTC,2445708.625000,28.7467,-95.2267,0206,-9.85,-12.61,16.0000,218.0000
1984-01-09 03:30:00 UTC,2445708.645833,28.7467,-95.2267,0206,-10.47,-13.40,17.0000,218.0000
1984-01-09 04:00:00 UTC,2445708.666667,28.7467,-95.2267,0206,-10.47,-13.40,17.0000,218.0000
1984-01-09 04:30:00 UTC,2445708.687500,28.7467,-95.2267,0206,-11.15,-12.83,17.0000,221.0000
1984-01-09 05:00:00 UTC,2445708.708333,28.7467,-95.2267,0206,-11.81,-12.23,17.0000,224.0000
1984-01-09 05:30:00 UTC,2445708.729167,28.7467,-95.2267,0206,-11.11,-11.51,16.0000,224.0000
1984-01-09 06:00:00 UTC,2445708.750000,28.7467,-95.2267,0206,-9.18,-10.57,14.0000,221.0000
1984-01-09 06:30:00 UTC,2445708.770833,28.7467,-95.2267,0206,-9.84,-11.32,15.0000,221.0000
1984-01-09 07:00:00 UTC,2445708.791667,28.7467,-95.2267,0206,-12.23,-11.81,17.0000,226.0000
1984-01-09 07:30:00 UTC,2445708.812500,28.7467,-95.2267,0206,-15.17,-11.43,19.0000,233.0000
1984-01-09 08:00:00 UTC,2445708.833333,28.7467,-95.2267,0206,-14.09,-9.51,17.0000,236.0000
1984-01-09 08:30:00 UTC,2445708.854167,28.7467,-95.2267,0206,-11.47,-8.03,14.0000,235.0000
1984-01-09 09:00:00 UTC,2445708.875000,28.7467,-95.2267,0206,-9.06,-7.87,12.0000,229.0000
1984-01-09 09:30:00 UTC,2445708.895833,28.7467,-95.2267,0206,-6.47,-6.25,9.0000,226.0000
1984-01-09 10:00:00 UTC,2445708.916667,28.7467,-95.2267,0206,-5.59,-4.21,7.0000,233.0000
1984-01-09 10:30:00 UTC,2445708.937500,28.7467,-95.2267,0206,-5.30,-2.82,6.0000,242.0000
1984-01-09 11:00:00 UTC,2445708.958333,28.7467,-95.2267,0206,-6.00,-3.61,7.0000,239.0000
1984-01-09 11:30:00 UTC,2445708.979167,28.7467,-95.2267,0206,-6.99,-5.66,9.0000,231.0000
1984-01-09 12:00:00 UTC,2445709.000000,28.7467,-95.2267,0206,-9.96,-8.36,13.0000,230.0000
1984-01-09 12:30:00 UTC,2445709.020833,28.7467,-95.2267,0206,-12.29,-8.60,15.0000,235.0000
1984-01-09 13:00:00 UTC,2445709.041667,28.7467,-95.2267,0206,-14.87,-8.24,17.0000,241.0000
1984-01-09 13:30:00 UTC,2445709.062500,28.7467,-95.2267,0206,-17.62,-7.12,19.0000,248.0000
1984-01-09 14:00:00 UTC,2445709.083333,28.7467,-95.2267,0206,-18.44,-4.60,19.0000,256.0000
1984-01-09 14:30:00 UTC,2445709.104167,28.7467,-95.2267,0206,-15.76,-2.78,16.0000,260.0000
1984-01-09 15:00:00 UTC,2445709.125000,28.7467,-95.2267,0206,-12.76,-2.48,13.0000,259.0000
1984-01-09 15:30:00 UTC,2445709.145833,28.7467,-95.2267,0206,-10.72,-2.47,11.0000,257.0000
1984-01-09 16:00:00 UTC,2445709.166667,28.7467,-95.2267,0206,-10.20,-4.12,11.0000,248.0000
1984-01-09 16:30:00 UTC,2445709.187500,28.7467,-95.2267,0206,-11.48,-6.10,13.0000,242.0000
1984-01-09 17:00:00 UTC,2445709.208333,28.7467,-95.2267,0206,-10.60,-5.63,12.0000,242.0000
1984-01-09 17:30:00 UTC,2445709.229167,28.7467,-95.2267,0206,-8.66,-5.00,10.0000,240.0000
1984-01-09 18:00:00 UTC,2445709.250000,28.7467,-95.2267,0206,-6.99,-5.66,9.0000,231.0000
1984-01-09 18:30:00 UTC,2445709.270833,28.7467,-95.2267,0206,-6.02,-6.69,9.0000,222.0000
1984-01-09 19:00:00 UTC,2445709.291667,28.7467,-95.2267,0206,-5.79,-6.89,9.0000,220.0000
1984-01-09 19:30:00 UTC,2445709.312500,28.7467,-95.2267,0206,-6.56,-7.55,10.0000,221.0000
1984-01-09 20:00:00 UTC,2445709.333333,28.7467,-95.2267,0206,-6.56,-7.55,10.0000,221.0000
1984-01-09 20:30:00 UTC,2445709.354167,28.7467,-95.2267,0206,-5.79,-6.89,9.0000,220.0000
1984-01-09 21:00:00 UTC,2445709.375000,28.7467,-95.2267,0206,-4.31,-5.52,7.0000,218.0000
1984-01-09 21:30:00 UTC,2445709.395833,28.7467,-95.2267,0206,-4.11,-5.66,7.0000,216.0000
1984-01-09 22:00:00 UTC,2445709.416667,28.7467,-95.2267,0206,-4.11,-5.66,7.0000,216.0000
1984-01-09 22:30:00 UTC,2445709.437500,28.7467,-95.2267,0206,-3.91,-5.80,7.0000,214.0000
1984-01-09 23:00:00 UTC,2445709.458333,28.7467,-95.2267,0206,-4.00,-6.93,8.0000,210.0000
1984-01-09 23:30:00 UTC,2445709.479167,28.7467,-95.2267,0206,-4.00,-6.93,8.0000,210.0000
1984-01-10 00:00:00 UTC,2445709.500000,28.7467,-95.2267,0206,-3.91,-5.80,7.0000,214.0000
1984-01-10 00:30:00 UTC,2445709.520833,28.7467,-95.2267,0206,-4.93,-6.30,8.0000,218.0000
1984-01-10 01:00:00 UTC,2445709.541667,28.7467,-95.2267,0206,-7.07,-8.43,11.0000,220.0000
1984-01-10 01:30:00 UTC,2445709.562500,28.7467,-95.2267,0206,-8.70,-9.66,13.0000,222.0000
1984-01-10 02:00:00 UTC,2445709.583333,28.7467,-95.2267,0206,-10.24,-9.55,14.0000,227.0000
1984-01-10 02:30:00 UTC,2445709.604167,28.7467,-95.2267,0206,-12.61,-9.85,16.0000,232.0000
1984-01-10 03:00:00 UTC,2445709.625000,28.7467,-95.2267,0206,-13.11,-9.18,16.0000,235.0000
1984-01-10 03:30:00 UTC,2445709.645833,28.7467,-95.2267,0206,-13.71,-8.24,16.0000,239.0000
1984-01-10 04:00:00 UTC,2445709.666667,28.7467,-95.2267,0206,-14.13,-7.51,16.0000,242.0000
1984-01-10 04:30:00 UTC,2445709.687500,28.7467,-95.2267,0206,-13.71,-8.24,16.0000,239.0000
1984-01-10 05:00:00 UTC,2445709.708333,28.7467,-95.2267,0206,-12.44,-8.39,15.0000,236.0000
1984-01-10 05:30:00 UTC,2445709.729167,28.7467,-95.2267,0206,-11.74,-7.62,14.0000,237.0000
1984-01-10 06:00:00 UTC,2445709.750000,28.7467,-95.2267,0206,-12.24,-6.79,14.0000,241.0000
1984-01-10 06:30:00 UTC,2445709.770833,28.7467,-95.2267,0206,-12.69,-5.92,14.0000,245.0000
1984-01-10 07:00:00 UTC,2445709.791667,28.7467,-95.2267,0206,-12.98,-5.24,14.0000,248.0000
1984-01-10 07:30:00 UTC,2445709.812500,28.7467,-95.2267,0206,-12.36,-4.02,13.0000,252.0000
1984-01-10 08:00:00 UTC,2445709.833333,28.7467,-95.2267,0206,-11.78,-2.29,12.0000,259.0000
1984-01-10 08:30:00 UTC,2445709.854167,28.7467,-95.2267,0206,-11.97,-0.84,12.0000,266.0000
1984-01-10 09:00:00 UTC,2445709.875000,28.7467,-95.2267,0206,-10.98,0.58,11.0000,273.0000
1984-01-10 09:30:00 UTC,2445709.895833,28.7467,-95.2267,0206,-9.90,1.39,10.0000,278.0000